Weather History for Norfolk, VA

Change the Weather History Date:

Friday, February 7, 2014

  Actual Average Record
Temperature  
Mean Temperature 35 °F 42 °F  
Max Temperature 41 °F 50 °F 76 °F (1904)
Min Temperature 29 °F 33 °F 13 °F (1996)
Degree Days  
Heating Degree Days 30 24  
Month to date heating degree days 174 168  
Since 1 July heating degree days 2133 2110  
Cooling Degree Days 0 0  
Month to date cooling degree days 0 0  
Year to date cooling degree days 0 0  
Moisture  
Dew Point 26 °F    
Average Humidity 70    
Maximum Humidity 85    
Minimum Humidity 54    
Precipitation  
Precipitation 0.00 in 0.11 in 1.38 in (1941)
Month to date precipitation 0.81 0.77  
Year to date precipitation 4.05 4.17  
Snow  
Snow 0.00 in 0.10 in 11.00 in (1936)
Month to date snowfall 0.0 0.6  
Since 1 July snowfall 11.5 4.2  
Snow Depth 0.00 in    
Sea Level Pressure  
Sea Level Pressure 30.31 in    
Wind  
Wind Speed 3 mph (ENE)    
Max Wind Speed 10 mph    
Max Gust Speed 14 mph    
Visibility 10 miles    
Events      
T = Trace of Precipitation, MM = Missing Value Source: NWS Daily Summary

Daily Weather History Graph

Daily Weather History Graph

Search for Another Location

Airport:

Trip Planner

Search our weather history database for the weather conditions in past years. The results will help you decide how hot, cold, wet, or windy it might be!

Date:

Astronomy

Feb. 07, 2014 Rise Set
Actual Time 7:01 AM EST 5:36 PM EST
Civil Twilight 6:34 AM EST 6:03 PM EST
Nautical Twilight 6:04 AM EST 6:34 PM EST
Astronomical Twilight 5:33 AM EST 7:04 PM EST
Moon 11:47 AM EST (2/7) 1:14 AM EST (2/7)
Length of Visible Light 11h 28m
Length of Day
10h 34m
First Quarter, 59% of the Moon is Illuminated
Feb 7
First Quarter
Feb 14
Full
Feb 22
Last Quarter
Mar 1
New
Mar 8
First Quarter

Hourly Weather History & Observations

Time (EST) Temp. Windchill Dew Point Humidity Pressure Visibility Wind Dir Wind Speed Gust Speed Precip Events Conditions
12:51 AM 34.0 °F - 21.0 °F 59% 30.32 in 10.0 mi Calm Calm - N/A   Overcast
1:51 AM 34.0 °F - 21.9 °F 61% 30.30 in 10.0 mi Calm Calm - N/A   Overcast
2:51 AM 33.1 °F - 21.9 °F 64% 30.29 in 10.0 mi Calm Calm - N/A   Overcast
3:51 AM 32.0 °F 27.5 °F 25.0 °F 75% 30.29 in 10.0 mi SSW 4.6 mph - N/A   Overcast
4:51 AM 32.0 °F - 25.0 °F 75% 30.31 in 10.0 mi Calm Calm - N/A   Overcast
5:51 AM 30.0 °F - 25.0 °F 82% 30.31 in 10.0 mi Calm Calm - N/A   Clear
6:51 AM 30.0 °F - 25.0 °F 82% 30.33 in 9.0 mi Calm Calm - N/A   Clear
7:51 AM 32.0 °F 28.7 °F 28.0 °F 85% 30.34 in 10.0 mi WNW 3.5 mph - N/A   Clear
8:51 AM 34.0 °F - 28.0 °F 79% 30.35 in 10.0 mi Calm Calm - N/A   Clear
9:51 AM 37.0 °F - 28.0 °F 70% 30.34 in 10.0 mi Calm Calm - N/A   Clear
10:51 AM 37.9 °F 34.4 °F 26.1 °F 62% 30.35 in 10.0 mi NNE 4.6 mph - N/A   Clear
11:51 AM 39.0 °F 34.8 °F 26.1 °F 60% 30.35 in 10.0 mi NNE 5.8 mph - N/A   Clear
12:51 PM 39.0 °F 32.8 °F 26.1 °F 60% 30.30 in 10.0 mi NNE 9.2 mph - N/A   Clear
1:51 PM 39.0 °F 33.4 °F 25.0 °F 57% 30.29 in 10.0 mi NE 8.1 mph - N/A   Clear
2:51 PM 39.0 °F 32.8 °F 26.1 °F 60% 30.29 in 10.0 mi ENE 9.2 mph - N/A   Clear
3:51 PM 39.9 °F 35.1 °F 26.1 °F 58% 30.29 in 10.0 mi ESE 6.9 mph - N/A   Clear
4:51 PM 39.0 °F 35.7 °F 25.0 °F 57% 30.30 in 10.0 mi ESE 4.6 mph - N/A   Clear
5:51 PM 37.0 °F 31.6 °F 24.1 °F 59% 30.30 in 10.0 mi ESE 6.9 mph - N/A   Clear
6:51 PM 36.0 °F 32.1 °F 26.1 °F 67% 30.31 in 10.0 mi SSE 4.6 mph - N/A   Clear
7:51 PM 37.0 °F - 27.0 °F 67% 30.32 in 10.0 mi Calm Calm - N/A   Clear
8:51 PM 34.0 °F - 27.0 °F 75% 30.32 in 10.0 mi Calm Calm - N/A   Clear
9:51 PM 34.0 °F - 27.0 °F 75% 30.32 in 9.0 mi Calm Calm - N/A   Clear
10:51 PM 33.1 °F - 27.0 °F 78% 30.31 in 9.0 mi Calm Calm - N/A   Clear
11:51 PM 30.9 °F - 27.0 °F 85% 30.31 in 6.0 mi Calm Calm - N/A   Clear